This demonstration page uses our WeatherBlox Daily Observations layout. Learn more.

Left ArrowRight Arrow

Hourly Observations for March 19, 2018

Temp ( °F °C ) Dew Point ( °F °C ) Humidity (%) Winds ( mph kmh ) Pressure ( in mb ) Visibility ( mi km ) Precip ( " mm )
12:30 am 00:30 Cloudy 36 2 36 2 100 100 ENE 15 24 29.85 1011 10 16 0.00 0.00
12:53 am 00:53 Cloudy with Light Rain 35 1.7 35 1.7 100 100 ENE 15 24 29.84 1010 5 8 0.02 0.51
1:08 am 01:08 Cloudy with Light Rain 35 1.7 35 1.7 100 100 ENE 13 20 29.85 1011 5 8 0.01 0.25
1:53 am 01:53 Cloudy with Mist and Fog 35 1.7 35 1.7 100 100 ENE 17 28 29.82 1010 4 6 0.01 0.25
2:23 am 02:23 Cloudy with Light Snow 34 1.1 34 1.1 100 100 NE 12 19 29.85 1011 2 3 0.03 0.76
2:50 am 02:50 Cloudy with Light Snow 34 1 34 1 100 100 NE 14 22 29.83 1010 3 5 0.06 1.52
2:53 am 02:53 Cloudy with Light Snow 34 1.1 34 1.1 100 100 NE 16 26 29.81 1009 3 5 0.06 1.52
3:53 am 03:53 Cloudy with Light Rain 34 1.1 34 1.1 100 100 NNE 16 26 29.80 1009 4 6 0.01 0.25
4:53 am 04:53 Cloudy with Light Rain 34 1.1 34 1.1 100 100 N 15 24 29.79 1009 3 5 0.06 1.52
5:53 am 05:53 Cloudy 34 1.1 34 1.1 100 100 NNE 20 31 29.80 1009 10 16 0.01 0.25
6:20 am 06:20 Cloudy 34 1 34 1 100 100 NNE 23 37 29.83 1010 10 16 0.00 0.00
6:53 am 06:53 Cloudy 34 1.1 33 0.6 97 97 NNE 21 33 29.83 1010 10 16 0.00 0.00
7:53 am 07:53 Cloudy 34 1.1 33 0.6 97 97 NNE 22 35 29.87 1011 10 16 0.00 0.03
8:53 am 08:53 Cloudy with Light Snow 33 0.6 33 0.6 100 100 NNE 18 30 29.88 1012 3 5 0.00 0.03
9:05 am 09:05 Cloudy with Light Snow 33 0.6 33 0.6 100 100 NNE 18 30 29.94 1014 3 4 0.00 0.03
9:14 am 09:14 Cloudy with Light Snow 34 1 34 1 100 100 NNE 16 26 29.91 1013 3 5 0.00 0.00
9:53 am 09:53 Windy with Snow Likely 34 1.1 33 0.6 97 97 N 20 31 29.89 1012 3 4 0.01 0.25
10:53 am 10:53 Windy with Snow Likely 34 1.1 33 0.6 97 97 NNE 20 31 29.92 1013 2 3 0.01 0.25
11:12 am 11:12 Cloudy with Light Snow 34 1 34 1 100 100 NNE 18 30 29.97 1015 1 2 0.00 0.00
11:44 am 11:44 Cloudy with Light Snow 34 1 34 1 100 100 N 16 26 30.00 1016 1 2 0.00 0.00
11:53 am 11:53 Cloudy with Light Snow 33 0.6 33 0.6 100 100 NNE 15 24 29.95 1014 1 2 0.01 0.25
12:23 pm 12:23 Cloudy with Light Snow 34 1.1 34 1.1 100 100 N 16 26 30.00 1016 3 5 0.00 0.03
12:53 pm 12:53 Cloudy with Light Rain 35 1.7 35 1.7 100 100 N 17 28 29.96 1014 8 13 0.01 0.25
1:53 pm 13:53 Cloudy with Light Rain 36 2.2 35 1.7 97 97 N 18 30 29.96 1015 10 16 0.00 0.03
2:29 pm 14:29 Windy with Snow Likely 36 2.2 35 1.7 97 97 N 20 31 29.97 1015 6 10 0.01 0.25
2:53 pm 14:53 Cloudy with Light Snow 36 2.2 35 1.7 97 97 N 18 30 29.96 1014 7 11 0.01 0.25
3:09 pm 15:09 Cloudy with Light Rain 36 2.2 35 1.7 97 97 N 21 33 29.97 1015 9 14 0.00 0.03
3:53 pm 15:53 Cloudy 37 2.8 35 1.7 93 93 N 17 28 29.96 1015 10 16 0.01 0.25
4:53 pm 16:53 Cloudy with Light Rain 36 2.2 35 1.7 97 97 N 18 30 29.97 1015 7 11 0.01 0.25
5:19 pm 17:19 Cloudy with Light Snow 36 2.2 35 1.7 97 97 N 18 30 30.00 1016 6 10 0.01 0.25
5:53 pm 17:53 Windy with Snow Likely 35 1.7 35 1.7 100 100 N 20 31 29.99 1016 7 11 0.02 0.51
6:53 pm 18:53 Cloudy with Light Snow 34 1.1 34 1.1 100 100 NNW 13 20 30.01 1016 5 8 0.02 0.51
7:38 pm 19:38 Cloudy with Light Rain 36 2 34 1 93 93 N 14 22 30.06 1018 7 11 0.00 0.00
7:53 pm 19:53 Cloudy with Light Rain 34 1.1 34 1.1 100 100 N 16 26 30.03 1017 8 13 0.01 0.25
8:01 pm 20:01 Cloudy with Light Rain 34 1.1 34 1.1 100 100 NNW 14 22 30.06 1018 8 13 0.01 0.25
8:53 pm 20:53 Cloudy with Light Wintry Mix 34 1.1 34 1.1 100 100 N 15 24 30.04 1017 8 13 0.01 0.25
9:10 pm 21:10 Cloudy with Light Wintry Mix 34 1.1 34 1.1 100 100 NNW 13 20 30.09 1019 8 13 0.01 0.25
9:53 pm 21:53 Cloudy with Light Rain 34 1.1 34 1.1 100 100 NNW 13 20 30.06 1018 8 13 0.01 0.25
10:53 pm 22:53 Cloudy 34 1.1 34 1.1 100 100 NNW 14 22 30.07 1018 10 16 0.00 0.03
11:53 pm 23:53 Cloudy with Light Wintry Mix 34 1.1 34 1.1 100 100 N 13 20 30.07 1018 10 16 0.00 0.03

Powered by AerisWeather